Regional Weather Roundup
Issued by NWS

Home | Current Version | Previous Version | Text Only | Print | Product List | Glossary Off
Versions: 1 2 3 4 5 6 7 8 9 10 11 12 13 14 15 16 17 18 19 20 21 22 23 24 25 26 27 28 29 30 31 32 33 34 35 36 37 38 39 40 41 42 43 44 45 46 47 48 49 50

000
ASUS43 KDTX 250110
RWRMI
MICHIGAN HOURLY REGIONAL WEATHER ROUNDUP
NATIONAL WEATHER SERVICE DETROIT/PONTIAC MI
900 PM EDT TUE APR 24 2018

NOTE: "FAIR" INDICATES FEW OR NO CLOUDS BELOW 12,000 FEET WITH NO
SIGNIFICANT WEATHER AND/OR OBSTRUCTION TO VISIBILITY.

MIZ047>049-052>055-059>063-066>070-074>076-081>083-250200-
SOUTHEAST LOWER MICHIGAN

CITY           SKY/WX    TMP DP  RH WIND       PRES   REMARKS
ADRIAN         CLOUDY    50  50 100 E8        29.98S FOG
ALMA           RAIN      53  53  98 NW7       30.01S
ANN ARBOR      CLOUDY    52  51  97 E6        29.98S
BAD AXE        CLOUDY    56  42  57 E8        30.01S
CARO           LGT RAIN  53  48  84 CALM      30.00R
DETROIT CITY   CLOUDY    50  48  93 E7        30.00S FOG
DETROIT        CLOUDY    52  49  89 E7        29.99S FOG
FLINT          LGT RAIN  52  49  89 E7        29.99S
GROSSE ILE     RAIN      50  49  97 NE6       29.98S
HILLSDALE      CLOUDY    50  46  87 CALM      29.97S FOG
HOWELL         DRIZZLE   53  51  93 E8        29.98S

CITY           SKY/WX    TMP DP  RH WIND       PRES   REMARKS
JACKSON        CLOUDY    52  51  97 NE3       29.98S
LAMBERTVILLE   DRIZZLE   50  47  91 E3        29.97F
LANSING        LGT RAIN  53  53 100 N6        30.00R FOG
LAPEER         CLOUDY    53  45  75 SE6       30.00S
MASON          CLOUDY    54  49  84 CALM      29.98S
MONROE         DRIZZLE   50  49  93 E8        29.97S
MT. CLEMENS    LGT RAIN  49  49 100 E6        29.99S FOG
PONTIAC        DRIZZLE   51  49  92 E7        29.99R
PORT HOPE        N/A     45  41  86 E7        30.01S
PORT HURON     LGT RAIN  50  48  93 CALM      30.01S
TRI CITIES     CLOUDY    53  49  86 NE8       30.00F
MIDLAND        DRIZZLE   53  52  97 N6        30.00S
TROY           DRIZZLE   52  50  93 E6        30.01S
SAGINAW HB     CLOUDY    50  46  87 N3        29.99S
$$
MIZ043>046-050>051-056>058-064>065-071>073-077>080-250200-
SOUTHWEST LOWER MICHIGAN

CITY           SKY/WX    TMP DP  RH WIND       PRES   REMARKS
BATTLE CREEK   CLOUDY    54  53  97 N5        29.98S FOG
BENTON HARBOR  CLOUDY    52  46  80 N8        29.98F
BIG RAPIDS     CLOUDY    52  49  89 CALM      30.00F
COLDWATER      CLOUDY    52  51  97 E6        29.97S
FREMONT        CLOUDY    55  46  70 NE5       29.99F
HOLLAND        CLOUDY    56  47  71 CALM      29.99S
GRAND RAPIDS   LGT RAIN  55  52  89 N7        30.00R FOG
IONIA          LGT RAIN  54  53  97 N10       29.99S
KALAMAZOO      CLOUDY    56  51  84 NE5       29.99R
LUDINGTON      CLOUDY    51  36  56 N3        30.01R
MARSHALL       CLOUDY    52  51  97 CALM      29.98R
MOUNT PLEASANT LGT RAIN  54  53  97 N3        30.01R
MUSKEGON       MOCLDY    58  49  72 NE5       29.99F
SOUTH HAVEN    CLOUDY    52  46  80 N8        29.99R
$$
MIZ016>042-250200-
NORTHERN LOWER MICHIGAN

CITY           SKY/WX    TMP DP  RH WIND       PRES   REMARKS
ALPENA         LGT RAIN  49  49 100 NW5       30.04S VSB 1/2
BEAVER ISLAND  FAIR      47  29  51 N7        30.08S
BELLAIRE       CLOUDY    49  29  46 N6        30.04S
CADILLAC       CLOUDY    51  41  69 N3        30.01F
CHARLEVOIX     CLOUDY    42  32  68 N9        30.10R
FRANKFORT      MOCLDY    51  32  48 N6        30.06R
GAYLORD        CLOUDY    44  43  96 CALM      30.03S
GRAYLING       LGT RAIN  50  50 100 CALM      30.01F FOG
HARBOR SPRINGS MOCLDY    50  28  43 NE6       30.06R
HOUGHTON LAKE  LGT RAIN  52  50  93 CALM      30.02S
MANISTEE       CLOUDY    55  33  43 NE9       30.02S
OSCODA         DRIZZLE   49  47  95 CALM      30.02S
PELLSTON       CLOUDY    50  30  46 N5        30.07R
ROGERS CITY    LGT RAIN  44  42  93 NW5       30.05R
TRAVERSE CITY  CLOUDY    50  32  50 N5        30.04S
$$
MIZ007>008-015-250200-
EASTERN UPPER MICHIGAN

CITY           SKY/WX    TMP DP  RH WIND       PRES   REMARKS
KINROSS        CLOUDY    42  29  59 NW14      30.05S
MACKINAC ISLAN CLOUDY    46  30  54 N10       30.05R
NEWBERRY       CLOUDY    41  27  57 NW9       30.08F
S. S. MARIE    CLOUDY    45  30  55 NW7       30.04F
MUNISING         N/A     37  31  78 N8        30.14S WCI  31
$$
MIZ004>006-011>014-085-250200-
CENTRAL UPPER MICHIGAN

CITY           SKY/WX    TMP DP  RH WIND       PRES   REMARKS
MANISTIQUE     FAIR      43  26  52 N10G18    30.09R
ESCANABA       CLOUDY    46  26  45 N9        30.12R
MENOMINEE      CLOUDY    50  27  40 NE15G26   30.11R
SAWYER-GWINN   CLOUDY    39  30  70 N10       30.14R WCI  32
$$
MIZ001>003-009>011-084-250200-
WESTERN UPPER MICHIGAN

CITY           SKY/WX    TMP DP  RH WIND       PRES   REMARKS
IRON MOUNTAIN  MOCLDY    48  29  47 N13       30.12R
HOUGHTON       CLOUDY    40  30  67 NW12      30.16R WCI  33
COPPER HARBOR    N/A     37  30  75 N7        30.18R WCI  32
IRONWOOD       FAIR      42  35  76 CALM      30.18S
$$

ABBREVIATIONS USED IN REMARKS
   TC - TEMPERATURE IN CELSIUS
  WCI - WIND CHILL INDEX
   HX - HEAT INDEX
  VSB - VISIBILITY





USA.gov is the U.S. government's official web portal to all federal, state and local government web resources and services.